loading
|

STARLINK-32171, 60332

Orbit data source: Space-Track

STARLINK-32171, 60332 is a payload satellite owned by SpaceX/Seattle (US) in LEO that was launched on Fri, 02 Aug 2024 UTC via an FALCON 9 launch vehicle from the Air Force Eastern Test Range (AFETR). Payloads include a variety of satellites, spacecraft, and rockets equipped with specific instruments for various scientific and technological missions. These include communications satellites like Starlink; space stations such as the ISS; scientific satellites like the Hubble; Earth observation satellites from companies like Planet Labs, Umbra, and HawkEye 360; GPS; miniature CubeSats for education and research; and military/defense satellites.

Loading next visibility...
Loading greatness...
STARLINK-32171 details
Identifier
60332, 2024-136D
Orbit
LEO
Last TLE update6 hours ago
Origin
Flag of USSpaceX/Seattle (US)
ManufacturerSpaceX/Seattle
Mission statusOperational
MissionUnknown
Bus & MotorSTARLINK V2M, Unknown motor
Mass750 kg wet, ~700 kg dry
Launch date (UTC)
2024-08-02 (2 months ago)
Launch vehicle
FALCON 9
Launch site
Air Force Eastern Test Range (AFETR)
Object type
Payload
Rocket body
Debris
Radar Cross SectionLarge (>1 m²)

Expand to show TLE details & history

TLE from 6 hours ago
0 STARLINK-32171
1 60332U 24136D   24261.60884057 -.00000745  00000-0 -86581-5 0  9994
2 60332  53.1620  55.5839 0001236 101.6574 258.4570 15.39607305  7270
Epoch: 2024-09-17T14:36Z
Definitive object data (Epoch: 2024-09-17T14:36:43.825Z)
Latitude0.00002°
Longitude-160.61974°
Altitude448.342 km
Speed7.644 km/s
True Right ascension03h 42m 20s
True Declination0° 00' 00"
Sunlit
Object was in full shadow at TLE epoch
Predictive object data (real-time)
Latitude29.99244°
Longitude-136.40994°
Altitude448.597 km
Speed7.647 km/s
Apparent Right ascension03h 44m 51s
Apparent Declination-3° 59' 14"
Sunlit
Object is in daylight
Predictive observer data (real-time)
Local Sidereal Time13:49:16
Azimuth316.452° NNW
Elevation-45.602°
Doppler factor1
Orbital elements
Apogee448.37 km
Perigee446.683 km
Semi-major axis6,825.664 km
Eccentricity0.0001236
Inclination53.162°
RAAN55.5839°
Arg. of periapsis101.6574°
True anomaly258.44312°
Mean anomaly258.457°
Eccentric anomaly258.45006°
Mean motion3.8488 °/min
BSTAR-0.0000086581
Period93.54 mins
No data available

STARLINK-32171 Visibility forecast

Observer location: 39.9160978°, -105.1181434

STARLINK-32171 is not visible in the next 10 days
Span
Click to sort rows by Start time (UTC) header in descending order
Start Az.
Max El. time (UTC)
Max El. Az.
Max El.
End time (UTC)
End Az.